Time,TemperatureF,DewpointF,PressureIn,WindDirection,WindDirectionDegrees,WindSpeedMPH,WindSpeedGustMPH,Humidity,HourlyPrecipIn,Conditions,Clouds,dailyrainin,SoftwareType,DateUTC
2013-07-12 00:00:00,82.6,70.1,29.92,ENE,78,2.0,2.0,66,0.00,,FEW120,0.00,VWS V14.01,2013-07-12 05:00:00,
2013-07-12 00:05:00,82.8,70.7,29.92,ENE,78,0.0,2.0,67,0.00,,CLR,0.00,VWS V14.01,2013-07-12 05:05:00,
2013-07-12 00:10:00,82.6,70.5,29.92,ENE,78,0.0,2.0,67,0.00,,CLR,0.00,VWS V14.01,2013-07-12 05:10:00,
2013-07-12 00:15:00,82.2,70.2,29.92,ENE,78,0.0,2.0,67,0.00,,CLR,0.00,VWS V14.01,2013-07-12 05:15:00,
2013-07-12 00:21:00,82.0,70.4,29.92,ENE,78,0.0,2.0,68,0.00,,CLR,0.00,VWS V14.01,2013-07-12 05:21:00,
2013-07-12 00:26:00,82.0,70.4,29.92,ENE,78,1.0,5.0,68,0.00,,CLR,0.00,VWS V14.01,2013-07-12 05:26:00,
2013-07-12 00:31:00,82.2,70.6,29.92,ENE,78,0.0,5.0,68,0.00,,CLR,0.00,VWS V14.01,2013-07-12 05:31:00,
2013-07-12 00:36:00,82.0,70.4,29.92,ENE,78,0.0,5.0,68,0.00,,CLR,0.00,VWS V14.01,2013-07-12 05:36:00,
2013-07-12 00:41:00,82.0,70.4,29.92,East,85,2.0,5.0,68,0.00,,CLR,0.00,VWS V14.01,2013-07-12 05:41:00,
2013-07-12 00:46:00,82.0,71.3,29.92,ENE,78,3.0,5.0,70,0.00,,CLR,0.00,VWS V14.01,2013-07-12 05:46:00,
2013-07-12 00:51:00,82.0,70.8,29.92,ENE,76,0.0,5.0,69,0.00,,CLR,0.00,VWS V14.01,2013-07-12 05:51:00,
2013-07-12 00:56:00,82.0,70.8,29.92,ENE,78,0.0,5.0,69,0.00,,CLR,0.00,VWS V14.01,2013-07-12 05:56:00,
2013-07-12 01:01:00,82.0,70.8,29.92,East,79,2.0,2.0,69,0.00,,CLR,0.00,VWS V14.01,2013-07-12 06:01:00,
2013-07-12 01:06:00,82.2,70.6,29.92,East,79,2.0,3.0,68,0.00,,CLR,0.00,VWS V14.01,2013-07-12 06:06:00,
2013-07-12 01:11:00,82.2,71.0,29.92,East,79,2.0,3.0,69,0.00,,CLR,0.00,VWS V14.01,2013-07-12 06:11:00,
2013-07-12 01:16:00,82.0,70.8,29.92,East,79,0.0,3.0,69,0.00,,CLR,0.00,VWS V14.01,2013-07-12 06:16:00,
2013-07-12 01:21:00,82.0,70.8,29.92,East,99,2.0,3.0,69,0.00,,CLR,0.00,VWS V14.01,2013-07-12 06:21:00,
2013-07-12 01:26:00,82.2,71.0,29.92,ESE,121,1.0,5.0,69,0.00,,CLR,0.00,VWS V14.01,2013-07-12 06:26:00,
2013-07-12 01:31:00,82.0,70.8,29.93,ESE,107,0.0,5.0,69,0.00,,CLR,0.00,VWS V14.01,2013-07-12 06:31:00,
2013-07-12 01:36:00,81.8,70.6,29.93,ESE,107,0.0,5.0,69,0.00,,CLR,0.00,VWS V14.01,2013-07-12 06:36:00,
2013-07-12 01:41:00,81.8,70.6,29.93,ESE,123,0.0,5.0,69,0.00,,CLR,0.00,VWS V14.01,2013-07-12 06:41:00,
2013-07-12 01:46:00,81.6,70.9,29.92,SE,127,0.0,5.0,70,0.00,,CLR,0.00,VWS V14.01,2013-07-12 06:46:00,
2013-07-12 01:51:00,81.4,70.7,29.92,SE,127,0.0,5.0,70,0.00,,CLR,0.00,VWS V14.01,2013-07-12 06:51:00,
2013-07-12 01:56:00,81.2,70.5,29.92,SSE,158,0.0,5.0,70,0.00,,CLR,0.00,VWS V14.01,2013-07-12 06:56:00,
2013-07-12 02:01:00,81.1,70.8,29.92,SSE,158,0.0,1.0,71,0.00,,CLR,0.00,VWS V14.01,2013-07-12 07:01:00,
2013-07-12 02:06:00,80.9,70.6,29.92,SSE,158,0.0,1.0,71,0.00,,CLR,0.00,VWS V14.01,2013-07-12 07:06:00,
2013-07-12 02:11:00,80.9,70.6,29.92,SSE,158,0.0,1.0,71,0.00,,CLR,0.00,VWS V14.01,2013-07-12 07:11:00,
2013-07-12 02:16:00,80.7,70.4,29.92,SSE,158,0.0,1.0,71,0.00,,CLR,0.00,VWS V14.01,2013-07-12 07:16:00,
2013-07-12 02:21:00,80.5,70.2,29.92,SSE,158,0.0,1.0,71,0.00,,CLR,0.00,VWS V14.01,2013-07-12 07:21:00,
2013-07-12 02:27:00,80.3,70.1,29.92,SSE,158,0.0,1.0,71,0.00,,CLR,0.00,VWS V14.01,2013-07-12 07:27:00,
2013-07-12 02:32:00,80.3,70.1,29.92,SSE,158,0.0,1.0,71,0.00,,CLR,0.00,VWS V14.01,2013-07-12 07:32:00,
2013-07-12 02:37:00,80.1,69.9,29.92,SSE,158,0.0,2.0,71,0.00,,CLR,0.00,VWS V14.01,2013-07-12 07:37:00,
2013-07-12 02:42:00,80.1,69.9,29.92,SSE,158,0.0,2.0,71,0.00,,CLR,0.00,VWS V14.01,2013-07-12 07:42:00,
2013-07-12 02:47:00,80.1,70.3,29.92,SSE,152,0.0,2.0,72,0.00,,CLR,0.00,VWS V14.01,2013-07-12 07:47:00,
2013-07-12 02:52:00,79.9,69.7,29.92,SSE,152,0.0,2.0,71,0.00,,CLR,0.00,VWS V14.01,2013-07-12 07:52:00,
2013-07-12 02:57:00,79.8,69.6,29.92,SSE,152,0.0,2.0,71,0.00,,CLR,0.00,VWS V14.01,2013-07-12 07:57:00,
2013-07-12 03:02:00,79.8,69.6,29.92,SSE,152,0.0,0.0,71,0.00,,CLR,0.00,VWS V14.01,2013-07-12 08:02:00,
2013-07-12 03:07:00,79.8,69.6,29.92,SSE,152,0.0,0.0,71,0.00,,CLR,0.00,VWS V14.01,2013-07-12 08:07:00,
2013-07-12 03:12:00,79.8,69.6,29.92,SSE,152,0.0,1.0,71,0.00,,CLR,0.00,VWS V14.01,2013-07-12 08:12:00,
2013-07-12 03:17:00,79.6,69.4,29.92,SSE,152,0.0,1.0,71,0.00,,CLR,0.00,VWS V14.01,2013-07-12 08:17:00,
2013-07-12 03:22:00,79.4,69.2,29.92,SSE,152,0.0,1.0,71,0.00,,CLR,0.00,VWS V14.01,2013-07-12 08:22:00,
2013-07-12 03:27:00,79.4,69.2,29.92,SSE,152,0.0,1.0,71,0.00,,CLR,0.00,VWS V14.01,2013-07-12 08:27:00,
2013-07-12 03:32:00,79.2,69.4,29.92,SSE,152,0.0,1.0,72,0.00,,CLR,0.00,VWS V14.01,2013-07-12 08:32:00,
2013-07-12 03:37:00,79.0,69.6,29.92,SSE,152,0.0,1.0,73,0.00,,CLR,0.00,VWS V14.01,2013-07-12 08:37:00,
2013-07-12 03:42:00,78.8,69.8,29.92,SSE,152,0.0,1.0,74,0.00,,CLR,0.00,VWS V14.01,2013-07-12 08:42:00,
2013-07-12 03:47:00,78.6,69.6,29.93,SSE,152,0.0,1.0,74,0.00,,CLR,0.00,VWS V14.01,2013-07-12 08:47:00,
2013-07-12 03:52:00,78.6,69.6,29.93,SSE,152,0.0,1.0,74,0.00,,CLR,0.00,VWS V14.01,2013-07-12 08:52:00,
2013-07-12 03:57:00,78.5,69.9,29.93,SSE,152,0.0,1.0,75,0.00,,CLR,0.00,VWS V14.01,2013-07-12 08:57:00,
2013-07-12 04:02:00,78.3,69.7,29.93,SSE,152,0.0,0.0,75,0.00,,CLR,0.00,VWS V14.01,2013-07-12 09:02:00,
2013-07-12 04:07:00,78.1,69.9,29.93,SSE,152,0.0,0.0,76,0.00,,CLR,0.00,VWS V14.01,2013-07-12 09:07:00,
2013-07-12 04:12:00,77.9,69.7,29.93,SSE,152,0.0,0.0,76,0.00,,CLR,0.00,VWS V14.01,2013-07-12 09:12:00,
2013-07-12 04:17:00,77.9,69.7,29.93,SSE,152,0.0,0.0,76,0.00,,CLR,0.00,VWS V14.01,2013-07-12 09:17:00,
2013-07-12 04:23:00,77.7,69.5,29.93,SSE,154,0.0,1.0,76,0.00,,CLR,0.00,VWS V14.01,2013-07-12 09:23:00,
2013-07-12 04:28:00,77.6,69.4,29.93,SSE,154,0.0,1.0,76,0.00,,CLR,0.00,VWS V14.01,2013-07-12 09:28:00,
2013-07-12 04:33:00,77.6,69.4,29.93,SSE,152,0.0,1.0,76,0.00,,CLR,0.00,VWS V14.01,2013-07-12 09:33:00,
2013-07-12 04:38:00,77.6,69.4,29.93,SSE,154,0.0,1.0,76,0.00,,CLR,0.00,VWS V14.01,2013-07-12 09:38:00,
2013-07-12 04:43:00,77.6,69.4,29.93,SSE,154,0.0,1.0,76,0.00,,CLR,0.00,VWS V14.01,2013-07-12 09:43:00,
2013-07-12 04:48:00,77.6,69.4,29.93,SSE,154,0.0,1.0,76,0.00,,CLR,0.00,VWS V14.01,2013-07-12 09:48:00,
2013-07-12 04:53:00,77.4,69.2,29.93,SSE,154,0.0,1.0,76,0.00,,CLR,0.00,VWS V14.01,2013-07-12 09:53:00,
2013-07-12 04:58:00,77.2,69.1,29.93,SSE,154,0.0,1.0,76,0.00,,CLR,0.00,VWS V14.01,2013-07-12 09:58:00,
2013-07-12 05:03:00,77.2,69.1,29.93,SSE,154,0.0,0.0,76,0.00,,CLR,0.00,VWS V14.01,2013-07-12 10:03:00,
2013-07-12 05:08:00,77.2,69.1,29.93,SE,145,0.0,2.0,76,0.00,,CLR,0.00,VWS V14.01,2013-07-12 10:08:00,
2013-07-12 05:13:00,77.2,69.1,29.93,SE,145,0.0,2.0,76,0.00,,CLR,0.00,VWS V14.01,2013-07-12 10:13:00,
2013-07-12 05:18:00,77.4,69.2,29.94,SE,145,0.0,2.0,76,0.00,,CLR,0.00,VWS V14.01,2013-07-12 10:18:00,
2013-07-12 05:23:00,77.4,69.2,29.94,SE,145,0.0,2.0,76,0.00,,CLR,0.00,VWS V14.01,2013-07-12 10:23:00,
2013-07-12 05:28:00,77.2,69.1,29.94,SE,133,1.0,2.0,76,0.00,,CLR,0.00,VWS V14.01,2013-07-12 10:28:00,
2013-07-12 05:33:00,77.2,69.1,29.94,SE,127,0.0,2.0,76,0.00,,CLR,0.00,VWS V14.01,2013-07-12 10:33:00,
2013-07-12 05:38:00,77.2,69.1,29.94,SE,127,0.0,2.0,76,0.00,,CLR,0.00,VWS V14.01,2013-07-12 10:38:00,
2013-07-12 05:43:00,77.2,69.4,29.94,ESE,123,0.0,2.0,77,0.00,,CLR,0.00,VWS V14.01,2013-07-12 10:43:00,
2013-07-12 05:48:00,77.2,69.4,29.94,ENE,76,0.0,2.0,77,0.00,,CLR,0.00,VWS V14.01,2013-07-12 10:48:00,
2013-07-12 05:53:00,77.0,69.6,29.94,East,83,0.0,3.0,78,0.00,,CLR,0.00,VWS V14.01,2013-07-12 10:53:00,
2013-07-12 05:58:00,76.8,69.8,29.94,East,92,0.0,3.0,79,0.00,,CLR,0.00,VWS V14.01,2013-07-12 10:58:00,
2013-07-12 06:03:00,76.7,69.7,29.94,ESE,112,3.0,3.0,79,0.00,,CLR,0.00,VWS V14.01,2013-07-12 11:03:00,
2013-07-12 06:08:00,76.7,70.1,29.94,ESE,107,1.0,3.0,80,0.00,,CLR,0.00,VWS V14.01,2013-07-12 11:08:00,
2013-07-12 06:13:00,76.5,69.9,29.94,SE,131,5.0,5.0,80,0.00,,CLR,0.00,VWS V14.01,2013-07-12 11:13:00,
2013-07-12 06:18:00,76.5,69.9,29.94,ESE,120,1.0,5.0,80,0.00,,CLR,0.00,VWS V14.01,2013-07-12 11:18:00,
2013-07-12 06:24:00,76.5,69.9,29.94,ESE,113,2.0,5.0,80,0.00,,CLR,0.00,VWS V14.01,2013-07-12 11:24:00,
2013-07-12 06:29:00,76.5,69.1,29.94,SE,130,0.0,5.0,78,0.00,,CLR,0.00,VWS V14.01,2013-07-12 11:29:00,
2013-07-12 06:34:00,76.5,69.1,29.95,SSE,161,0.0,5.0,78,0.00,,CLR,0.00,VWS V14.01,2013-07-12 11:34:00,
2013-07-12 06:39:00,76.5,69.5,29.95,ESE,119,2.0,7.0,79,0.00,,CLR,0.00,VWS V14.01,2013-07-12 11:39:00,
2013-07-12 06:44:00,76.5,69.9,29.95,SE,133,0.0,7.0,80,0.00,,CLR,0.00,VWS V14.01,2013-07-12 11:44:00,
2013-07-12 06:49:00,76.5,69.9,29.96,SE,136,0.0,7.0,80,0.00,,CLR,0.00,VWS V14.01,2013-07-12 11:49:00,
2013-07-12 06:54:00,76.5,70.2,29.96,SE,127,1.0,7.0,81,0.00,,CLR,0.00,VWS V14.01,2013-07-12 11:54:00,
2013-07-12 06:59:00,76.7,70.4,29.96,SE,124,0.0,7.0,81,0.00,,CLR,0.00,VWS V14.01,2013-07-12 11:59:00,
2013-07-12 07:04:00,76.7,70.4,29.96,SE,134,0.0,5.0,81,0.00,,CLR,0.00,VWS V14.01,2013-07-12 12:04:00,
2013-07-12 07:09:00,76.7,70.4,29.96,SE,144,0.0,5.0,81,0.00,,CLR,0.00,VWS V14.01,2013-07-12 12:09:00,
2013-07-12 07:14:00,77.0,70.4,29.96,ESE,113,0.0,5.0,80,0.00,,CLR,0.00,VWS V14.01,2013-07-12 12:14:00,
2013-07-12 07:19:00,77.2,70.6,29.96,ESE,121,0.0,6.0,80,0.00,,CLR,0.00,VWS V14.01,2013-07-12 12:19:00,
2013-07-12 07:24:00,77.6,70.6,29.96,ESE,120,5.0,7.0,79,0.00,,CLR,0.00,VWS V14.01,2013-07-12 12:24:00,
2013-07-12 07:29:00,77.7,70.3,29.97,East,80,2.0,11.0,78,0.00,,CLR,0.00,VWS V14.01,2013-07-12 12:29:00,
2013-07-12 07:34:00,77.7,70.3,29.97,East,95,5.0,11.0,78,0.00,,CLR,0.00,VWS V14.01,2013-07-12 12:34:00,
2013-07-12 07:39:00,77.9,70.1,29.97,ENE,69,0.0,11.0,77,0.00,,CLR,0.00,VWS V14.01,2013-07-12 12:39:00,
2013-07-12 07:44:00,78.1,70.7,29.97,NE,49,5.0,11.0,78,0.00,,CLR,0.00,VWS V14.01,2013-07-12 12:44:00,
2013-07-12 07:49:00,78.3,70.5,29.97,ENE,78,0.0,11.0,77,0.00,,CLR,0.00,VWS V14.01,2013-07-12 12:49:00,
2013-07-12 07:54:00,78.8,71.4,29.97,ENE,76,5.0,11.0,78,0.00,,CLR,0.00,VWS V14.01,2013-07-12 12:54:00,
2013-07-12 07:59:00,79.2,71.4,29.97,ENE,78,3.0,11.0,77,0.00,,CLR,0.00,VWS V14.01,2013-07-12 12:59:00,
2013-07-12 08:04:00,79.2,70.2,29.97,East,82,2.0,11.0,74,0.00,,CLR,0.00,VWS V14.01,2013-07-12 13:04:00,
2013-07-12 08:09:00,79.4,70.0,29.97,East,100,1.0,11.0,73,0.00,,CLR,0.00,VWS V14.01,2013-07-12 13:09:00,
2013-07-12 08:15:00,79.4,71.2,29.98,ESE,117,5.0,11.0,76,0.00,,CLR,0.00,VWS V14.01,2013-07-12 13:15:00,
2013-07-12 08:20:00,79.8,71.2,29.98,SSE,150,5.0,11.0,75,0.00,,CLR,0.00,VWS V14.01,2013-07-12 13:20:00,
2013-07-12 08:25:00,80.1,71.9,29.98,SE,127,0.0,11.0,76,0.00,,CLR,0.00,VWS V14.01,2013-07-12 13:25:00,
2013-07-12 08:30:00,80.7,71.7,29.98,ESE,103,1.0,11.0,74,0.00,,CLR,0.00,VWS V14.01,2013-07-12 13:30:00,
2013-07-12 08:35:00,80.7,70.8,29.98,ESE,123,3.0,11.0,72,0.00,,CLR,0.00,VWS V14.01,2013-07-12 13:35:00,
2013-07-12 08:40:00,80.7,70.4,29.98,East,85,2.0,11.0,71,0.00,,CLR,0.00,VWS V14.01,2013-07-12 13:40:00,
2013-07-12 08:45:00,81.1,70.8,29.99,ENE,73,0.0,11.0,71,0.00,,CLR,0.00,VWS V14.01,2013-07-12 13:45:00,
2013-07-12 08:50:00,81.2,70.9,29.99,East,97,2.0,11.0,71,0.00,,CLR,0.00,VWS V14.01,2013-07-12 13:50:00,
2013-07-12 08:55:00,81.6,70.9,29.99,SE,136,1.0,11.0,70,0.00,,CLR,0.00,VWS V14.01,2013-07-12 13:55:00,
2013-07-12 09:00:00,81.8,70.6,29.98,SE,134,5.0,11.0,69,0.00,,CLR,0.00,VWS V14.01,2013-07-12 14:00:00,
2013-07-12 09:05:00,82.4,71.2,29.98,East,88,2.0,5.0,69,0.00,,CLR,0.00,VWS V14.01,2013-07-12 14:05:00,
2013-07-12 09:10:00,82.4,71.2,29.98,ESE,102,1.0,7.0,69,0.00,,CLR,0.00,VWS V14.01,2013-07-12 14:10:00,
2013-07-12 09:15:00,82.8,71.2,29.99,SSE,165,5.0,7.0,68,0.00,,CLR,0.00,VWS V14.01,2013-07-12 14:15:00,
2013-07-12 09:20:00,82.6,71.0,29.99,SSW,195,1.0,10.0,68,0.00,,CLR,0.00,VWS V14.01,2013-07-12 14:20:00,
2013-07-12 09:25:00,82.6,71.4,29.99,ENE,71,2.0,10.0,69,0.00,,CLR,0.00,VWS V14.01,2013-07-12 14:25:00,
2013-07-12 09:30:00,83.0,71.8,29.99,South,174,0.0,10.0,69,0.00,,CLR,0.00,VWS V14.01,2013-07-12 14:30:00,
2013-07-12 09:35:00,82.8,71.2,29.99,ESE,102,3.0,10.0,68,0.00,,CLR,0.00,VWS V14.01,2013-07-12 14:35:00,
2013-07-12 09:40:00,83.2,71.6,29.99,NE,54,3.0,10.0,68,0.00,,CLR,0.00,VWS V14.01,2013-07-12 14:40:00,
2013-07-12 09:45:00,83.4,71.7,29.99,SSE,154,3.0,10.0,68,0.00,,CLR,0.00,VWS V14.01,2013-07-12 14:45:00,
2013-07-12 09:50:00,83.4,71.7,29.99,East,99,3.0,12.0,68,0.00,,CLR,0.00,VWS V14.01,2013-07-12 14:50:00,
2013-07-12 09:55:00,83.6,71.9,29.99,South,189,3.0,12.0,68,0.00,,CLR,0.00,VWS V14.01,2013-07-12 14:55:00,
2013-07-12 10:00:00,84.0,71.4,29.99,East,97,6.0,7.0,66,0.00,,CLR,0.00,VWS V14.01,2013-07-12 15:00:00,
2013-07-12 10:05:00,84.1,72.4,29.99,ESE,117,0.0,10.0,68,0.00,,CLR,0.00,VWS V14.01,2013-07-12 15:05:00,
2013-07-12 10:11:00,84.0,71.4,29.99,ENE,69,1.0,10.0,66,0.00,,CLR,0.00,VWS V14.01,2013-07-12 15:11:00,
2013-07-12 10:16:00,84.0,71.0,29.99,East,95,5.0,10.0,65,0.00,,CLR,0.00,VWS V14.01,2013-07-12 15:16:00,
2013-07-12 10:21:00,84.3,70.8,29.99,NE,41,0.0,10.0,64,0.00,,CLR,0.00,VWS V14.01,2013-07-12 15:21:00,
2013-07-12 10:26:00,84.1,71.1,29.99,East,83,2.0,10.0,65,0.00,,CLR,0.00,VWS V14.01,2013-07-12 15:26:00,
2013-07-12 10:31:00,84.7,71.2,29.99,East,93,2.0,10.0,64,0.00,,CLR,0.00,VWS V14.01,2013-07-12 15:31:00,
2013-07-12 10:36:00,84.9,70.9,29.99,East,88,5.0,10.0,63,0.00,,CLR,0.00,VWS V14.01,2013-07-12 15:36:00,
2013-07-12 10:41:00,85.3,72.2,29.99,ESE,123,5.0,10.0,65,0.00,,CLR,0.00,VWS V14.01,2013-07-12 15:41:00,
2013-07-12 10:46:00,85.5,72.4,29.98,SE,124,2.0,10.0,65,0.00,,CLR,0.00,VWS V14.01,2013-07-12 15:46:00,
2013-07-12 10:51:00,85.5,71.9,29.98,East,82,5.0,10.0,64,0.00,,CLR,0.00,VWS V14.01,2013-07-12 15:51:00,
2013-07-12 10:56:00,85.1,71.1,29.98,ENE,75,3.0,10.0,63,0.00,,CLR,0.00,VWS V14.01,2013-07-12 15:56:00,
2013-07-12 11:01:00,84.7,71.2,29.99,ENE,71,0.0,5.0,64,0.00,,CLR,0.00,VWS V14.01,2013-07-12 16:01:00,
2013-07-12 11:06:00,85.3,72.2,29.99,East,88,5.0,7.0,65,0.00,,CLR,0.00,VWS V14.01,2013-07-12 16:06:00,
2013-07-12 11:11:00,85.5,71.5,29.99,ESE,113,2.0,7.0,63,0.00,,CLR,0.00,VWS V14.01,2013-07-12 16:11:00,
2013-07-12 11:16:00,85.7,71.2,29.99,East,83,2.0,7.0,62,0.00,,CLR,0.00,VWS V14.01,2013-07-12 16:16:00,
2013-07-12 11:21:00,85.5,71.5,29.99,ENE,65,1.0,8.0,63,0.00,,CLR,0.00,VWS V14.01,2013-07-12 16:21:00,
2013-07-12 11:26:00,85.7,72.1,29.99,ENE,72,2.0,10.0,64,0.00,,CLR,0.00,VWS V14.01,2013-07-12 16:26:00,
2013-07-12 11:31:00,86.1,72.5,29.99,ESE,112,0.0,10.0,64,0.00,,CLR,0.00,VWS V14.01,2013-07-12 16:31:00,
2013-07-12 11:36:00,86.5,72.9,29.99,WSW,248,1.0,10.0,64,0.00,,CLR,0.00,VWS V14.01,2013-07-12 16:36:00,
2013-07-12 11:41:00,86.7,72.1,29.99,East,85,2.0,10.0,62,0.00,,CLR,0.00,VWS V14.01,2013-07-12 16:41:00,
2013-07-12 11:46:00,86.5,72.4,29.98,ENE,75,1.0,10.0,63,0.00,,CLR,0.00,VWS V14.01,2013-07-12 16:46:00,
2013-07-12 11:52:00,87.0,72.4,29.98,ESE,123,2.0,10.0,62,0.00,,CLR,0.00,VWS V14.01,2013-07-12 16:52:00,
2013-07-12 11:57:00,87.2,72.1,29.98,East,80,5.0,10.0,61,0.00,,CLR,0.00,VWS V14.01,2013-07-12 16:57:00,
2013-07-12 12:00:00,87.0,71.9,29.98,ENE,76,3.0,10.0,61,0.00,,OVC041CB,0.00,VWS V14.01,2013-07-12 17:00:00,
2013-07-12 12:02:00,87.2,72.6,29.98,East,85,2.0,7.0,62,0.00,,CLR,0.00,VWS V14.01,2013-07-12 17:02:00,
2013-07-12 12:07:00,87.6,72.5,29.98,East,85,2.0,7.0,61,0.00,,CLR,0.00,VWS V14.01,2013-07-12 17:07:00,
2013-07-12 12:12:00,87.2,72.6,29.98,East,99,3.0,10.0,62,0.00,,CLR,0.00,VWS V14.01,2013-07-12 17:12:00,
2013-07-12 12:17:00,87.2,72.6,29.98,East,95,5.0,10.0,62,0.00,,CLR,0.00,VWS V14.01,2013-07-12 17:17:00,
2013-07-12 12:22:00,87.4,72.8,29.98,ESE,112,0.0,10.0,62,0.00,,CLR,0.00,VWS V14.01,2013-07-12 17:22:00,
2013-07-12 12:27:00,87.6,72.5,29.98,SE,127,6.0,10.0,61,0.00,,CLR,0.00,VWS V14.01,2013-07-12 17:27:00,
2013-07-12 12:33:00,87.6,73.0,29.97,SSW,198,0.0,10.0,62,0.00,,CLR,0.00,VWS V14.01,2013-07-12 17:33:00,
2013-07-12 12:38:00,88.0,73.4,29.97,SE,138,0.0,10.0,62,0.00,,CLR,0.00,VWS V14.01,2013-07-12 17:38:00,
2013-07-12 12:44:00,88.4,72.8,29.97,ENE,73,5.0,10.0,60,0.00,,CLR,0.00,VWS V14.01,2013-07-12 17:44:00,
2013-07-12 12:50:00,88.8,73.1,29.97,SSW,208,5.0,12.0,60,0.00,,CLR,0.00,VWS V14.01,2013-07-12 17:50:00,
2013-07-12 12:55:00,88.4,73.2,29.97,ENE,76,5.0,12.0,61,0.00,,CLR,0.00,VWS V14.01,2013-07-12 17:55:00,
2013-07-12 13:00:00,88.6,72.9,29.96,SSE,157,0.0,12.0,60,0.00,,CLR,0.00,VWS V14.01,2013-07-12 18:00:00,
2013-07-12 13:06:00,88.8,72.6,29.96,East,89,0.0,7.0,59,0.00,,FEW045,0.00,VWS V14.01,2013-07-12 18:06:00,
2013-07-12 13:11:00,89.3,73.1,29.96,ESE,116,0.0,7.0,59,0.00,,FEW045,0.00,VWS V14.01,2013-07-12 18:11:00,
2013-07-12 13:17:00,89.5,73.3,29.96,ESE,112,2.0,8.0,59,0.00,,FEW045,0.00,VWS V14.01,2013-07-12 18:17:00,
2013-07-12 13:24:00,89.5,73.8,29.96,ENE,76,2.0,8.0,60,0.00,,FEW045,0.00,VWS V14.01,2013-07-12 18:24:00,
2013-07-12 13:29:00,89.7,74.0,29.96,SSE,157,2.0,13.0,60,0.00,,FEW045,0.00,VWS V14.01,2013-07-12 18:29:00,
2013-07-12 13:34:00,89.7,73.5,29.96,East,93,5.0,13.0,59,0.00,,FEW045,0.00,VWS V14.01,2013-07-12 18:34:00,
2013-07-12 13:40:00,90.1,73.8,29.96,South,176,0.0,13.0,59,0.00,,FEW045,0.00,VWS V14.01,2013-07-12 18:40:00,
2013-07-12 13:45:00,90.7,73.9,29.96,SE,136,0.0,13.0,58,0.00,,FEW045,0.00,VWS V14.01,2013-07-12 18:45:00,
2013-07-12 13:50:00,90.5,73.7,29.96,ENE,78,2.0,13.0,58,0.00,,FEW045,0.00,VWS V14.01,2013-07-12 18:50:00,
2013-07-12 13:55:00,90.5,74.2,29.96,ENE,61,5.0,13.0,59,0.00,,FEW045,0.00,VWS V14.01,2013-07-12 18:55:00,
2013-07-12 14:01:00,90.5,74.7,29.95,NNE,23,0.0,1.0,60,0.00,,FEW045,0.00,VWS V14.01,2013-07-12 19:01:00,
2013-07-12 14:06:00,90.3,74.0,29.95,NE,55,5.0,7.0,59,0.00,,FEW045,0.00,VWS V14.01,2013-07-12 19:06:00,
2013-07-12 14:11:00,90.7,74.4,29.95,East,88,0.0,8.0,59,0.00,,FEW045,0.00,VWS V14.01,2013-07-12 19:11:00,
2013-07-12 14:17:00,91.0,73.7,29.95,ESE,123,2.0,10.0,57,0.00,,FEW045,0.00,VWS V14.01,2013-07-12 19:17:00,
2013-07-12 14:22:00,90.7,72.9,29.95,ENE,72,7.0,10.0,56,0.00,,FEW045,0.00,VWS V14.01,2013-07-12 19:22:00,
2013-07-12 14:27:00,91.0,73.1,29.95,South,169,0.0,10.0,56,0.00,,FEW045,0.00,VWS V14.01,2013-07-12 19:27:00,
2013-07-12 14:33:00,91.4,74.6,29.95,East,96,3.0,10.0,58,0.00,,FEW045,0.00,VWS V14.01,2013-07-12 19:33:00,
2013-07-12 14:38:00,92.1,73.6,29.95,SE,126,2.0,10.0,55,0.00,,FEW045,0.00,VWS V14.01,2013-07-12 19:38:00,
2013-07-12 14:43:00,92.1,72.5,29.95,ESE,106,3.0,10.0,53,0.00,,FEW045,0.00,VWS V14.01,2013-07-12 19:43:00,
2013-07-12 14:49:00,92.1,74.2,29.95,WSW,246,2.0,10.0,56,0.00,,FEW045,0.00,VWS V14.01,2013-07-12 19:49:00,
2013-07-12 14:55:00,92.3,73.3,29.95,East,80,5.0,10.0,54,0.00,,FEW045,0.00,VWS V14.01,2013-07-12 19:55:00,
2013-07-12 15:00:00,92.3,73.8,29.94,SE,131,2.0,5.0,55,0.00,,FEW045,0.00,VWS V14.01,2013-07-12 20:00:00,
2013-07-12 15:06:00,92.1,74.7,29.94,ENE,76,3.0,10.0,57,0.00,,FEW050,0.00,VWS V14.01,2013-07-12 20:06:00,
2013-07-12 15:12:00,92.1,74.7,29.94,ESE,123,2.0,10.0,57,0.00,,FEW050,0.00,VWS V14.01,2013-07-12 20:12:00,
2013-07-12 15:17:00,92.1,74.2,29.94,ENE,71,5.0,10.0,56,0.00,,FEW050,0.00,VWS V14.01,2013-07-12 20:17:00,
2013-07-12 15:22:00,92.7,73.6,29.94,South,191,0.0,10.0,54,0.00,,FEW050,0.00,VWS V14.01,2013-07-12 20:22:00,
2013-07-12 15:27:00,92.9,71.5,29.94,SE,137,1.0,10.0,50,0.00,,FEW050,0.00,VWS V14.01,2013-07-12 20:27:00,
2013-07-12 15:33:00,93.2,73.5,29.94,East,86,5.0,10.0,53,0.00,,FEW050,0.00,VWS V14.01,2013-07-12 20:33:00,
2013-07-12 15:38:00,92.7,73.6,29.94,East,90,2.0,10.0,54,0.00,,FEW050,0.00,VWS V14.01,2013-07-12 20:38:00,
2013-07-12 15:43:00,92.5,72.3,29.94,ENE,78,0.0,10.0,52,0.00,,FEW050,0.00,VWS V14.01,2013-07-12 20:43:00,
2013-07-12 15:48:00,92.7,73.6,29.94,ENE,76,2.0,10.0,54,0.00,,FEW050,0.00,VWS V14.01,2013-07-12 20:48:00,
2013-07-12 15:54:00,93.2,72.4,29.94,East,96,2.0,10.0,51,0.00,,FEW050,0.00,VWS V14.01,2013-07-12 20:54:00,
2013-07-12 16:00:00,93.2,73.5,29.93,ENE,73,0.0,10.0,53,0.00,,FEW050,0.00,VWS V14.01,2013-07-12 21:00:00,
2013-07-12 16:05:00,93.4,73.2,29.93,SSW,195,2.0,6.0,52,0.00,,FEW050,0.00,VWS V14.01,2013-07-12 21:05:00,
2013-07-12 16:10:00,94.0,73.1,29.93,SW,217,6.0,6.0,51,0.00,,FEW050,0.00,VWS V14.01,2013-07-12 21:10:00,
2013-07-12 16:15:00,93.8,72.9,29.93,East,86,3.0,8.0,51,0.00,,FEW050,0.00,VWS V14.01,2013-07-12 21:15:00,
2013-07-12 16:20:00,93.8,71.8,29.93,East,96,1.0,8.0,49,0.00,,FEW050,0.00,VWS V14.01,2013-07-12 21:20:00,
2013-07-12 16:25:00,94.0,71.9,29.93,SE,134,1.0,8.0,49,0.00,,FEW050,0.00,VWS V14.01,2013-07-12 21:25:00,
2013-07-12 16:30:00,94.0,71.9,29.93,SE,133,3.0,8.0,49,0.00,,FEW050,0.00,VWS V14.01,2013-07-12 21:30:00,
2013-07-12 16:35:00,94.0,71.3,29.93,ESE,104,3.0,8.0,48,0.00,,FEW050,0.00,VWS V14.01,2013-07-12 21:35:00,
2013-07-12 16:41:00,94.3,72.2,29.93,ESE,109,2.0,8.0,49,0.00,,FEW050,0.00,VWS V14.01,2013-07-12 21:41:00,
2013-07-12 16:46:00,94.5,71.8,29.92,ESE,120,1.0,8.0,48,0.00,,FEW050,0.00,VWS V14.01,2013-07-12 21:46:00,
2013-07-12 16:51:00,93.8,71.8,29.92,East,100,3.0,12.0,49,0.00,,FEW050,0.00,VWS V14.01,2013-07-12 21:51:00,
2013-07-12 16:56:00,93.4,70.8,29.92,SE,130,10.0,12.0,48,0.00,,FEW050,0.00,VWS V14.01,2013-07-12 21:56:00,
2013-07-12 17:02:00,93.6,71.0,29.92,ENE,73,3.0,7.0,48,0.00,,FEW055,0.00,VWS V14.01,2013-07-12 22:02:00,
2013-07-12 17:07:00,92.9,70.9,29.92,ENE,59,6.0,10.0,49,0.00,,FEW055,0.00,VWS V14.01,2013-07-12 22:07:00,
2013-07-12 17:12:00,93.4,71.4,29.92,East,93,0.0,10.0,49,0.00,,FEW055,0.00,VWS V14.01,2013-07-12 22:12:00,
2013-07-12 17:17:00,93.8,71.2,29.92,SSE,164,5.0,10.0,48,0.00,,FEW055,0.00,VWS V14.01,2013-07-12 22:17:00,
2013-07-12 17:23:00,94.0,70.7,29.92,ESE,107,0.0,10.0,47,0.00,,FEW055,0.00,VWS V14.01,2013-07-12 22:23:00,
2013-07-12 17:28:00,94.0,72.5,29.92,East,82,0.0,10.0,50,0.00,,FEW055,0.00,VWS V14.01,2013-07-12 22:28:00,
2013-07-12 17:33:00,94.3,71.6,29.92,East,96,5.0,10.0,48,0.00,,FEW055,0.00,VWS V14.01,2013-07-12 22:33:00,
2013-07-12 17:38:00,93.8,71.2,29.92,ESE,116,0.0,10.0,48,0.00,,FEW055,0.00,VWS V14.01,2013-07-12 22:38:00,
2013-07-12 17:44:00,93.8,71.8,29.92,East,99,2.0,10.0,49,0.00,,FEW055,0.00,VWS V14.01,2013-07-12 22:44:00,
2013-07-12 17:49:00,93.4,71.4,29.92,East,80,2.0,10.0,49,0.00,,FEW055,0.00,VWS V14.01,2013-07-12 22:49:00,
2013-07-12 17:54:00,92.9,71.5,29.92,ESE,103,6.0,10.0,50,0.00,,FEW055,0.00,VWS V14.01,2013-07-12 22:54:00,
2013-07-12 17:59:00,92.9,70.9,29.92,East,99,3.0,10.0,49,0.00,,FEW055,0.00,VWS V14.01,2013-07-12 22:59:00,
2013-07-12 18:05:00,92.9,70.9,29.92,ENE,75,2.0,6.0,49,0.00,,FEW060,0.00,VWS V14.01,2013-07-12 23:05:00,
2013-07-12 18:10:00,92.9,70.9,29.92,ESE,113,5.0,11.0,49,0.00,,FEW060,0.00,VWS V14.01,2013-07-12 23:10:00,
2013-07-12 18:16:00,92.7,69.5,29.91,ENE,58,6.0,11.0,47,0.00,,FEW060,0.00,VWS V14.01,2013-07-12 23:16:00,
2013-07-12 18:21:00,92.5,70.0,29.91,ENE,68,5.0,11.0,48,0.00,,FEW060,0.00,VWS V14.01,2013-07-12 23:21:00,
2013-07-12 18:27:00,92.9,69.1,29.91,ESE,117,3.0,11.0,46,0.00,,FEW060,0.00,VWS V14.01,2013-07-12 23:27:00,
2013-07-12 18:33:00,93.2,70.0,29.91,SSW,205,1.0,11.0,47,0.00,,FEW060,0.00,VWS V14.01,2013-07-12 23:33:00,
2013-07-12 18:38:00,92.9,69.1,29.91,ESE,109,5.0,11.0,46,0.00,,FEW060,0.00,VWS V14.01,2013-07-12 23:38:00,
2013-07-12 18:44:00,92.5,70.6,29.91,ENE,76,2.0,11.0,49,0.00,,FEW060,0.00,VWS V14.01,2013-07-12 23:44:00,
2013-07-12 18:50:00,92.5,71.2,29.91,East,85,5.0,11.0,50,0.00,,FEW060,0.00,VWS V14.01,2013-07-12 23:50:00,
2013-07-12 18:55:00,92.3,70.4,29.91,ESE,104,2.0,11.0,49,0.00,,FEW060,0.00,VWS V14.01,2013-07-12 23:55:00,
2013-07-12 19:00:00,92.1,70.2,29.91,ESE,113,3.0,11.0,49,0.00,,FEW060,0.00,VWS V14.01,2013-07-13 00:00:00,
2013-07-12 19:05:00,91.8,69.9,29.91,ENE,72,0.0,10.0,49,0.00,,FEW060,0.00,VWS V14.01,2013-07-13 00:05:00,
2013-07-12 19:11:00,91.8,69.3,29.91,East,100,5.0,10.0,48,0.00,,FEW060,0.00,VWS V14.01,2013-07-13 00:11:00,
2013-07-12 19:16:00,91.6,70.3,29.91,East,100,2.0,10.0,50,0.00,,FEW060,0.00,VWS V14.01,2013-07-13 00:16:00,
2013-07-12 19:22:00,91.6,70.9,29.91,East,89,1.0,10.0,51,0.00,,FEW060,0.00,VWS V14.01,2013-07-13 00:22:00,
2013-07-12 19:27:00,91.6,70.9,29.91,SSW,196,2.0,10.0,51,0.00,,FEW060,0.00,VWS V14.01,2013-07-13 00:27:00,
2013-07-12 19:32:00,91.4,69.6,29.91,East,100,3.0,10.0,49,0.00,,FEW060,0.00,VWS V14.01,2013-07-13 00:32:00,
2013-07-12 19:37:00,91.0,70.4,29.91,NE,56,5.0,10.0,51,0.00,,FEW060,0.00,VWS V14.01,2013-07-13 00:37:00,
2013-07-12 19:42:00,90.7,70.1,29.91,ENE,65,1.0,10.0,51,0.00,,FEW060,0.00,VWS V14.01,2013-07-13 00:42:00,
2013-07-12 19:48:00,90.7,69.5,29.91,ESE,107,3.0,10.0,50,0.00,,FEW060,0.00,VWS V14.01,2013-07-13 00:48:00,
2013-07-12 19:53:00,90.5,69.3,29.91,ESE,120,2.0,10.0,50,0.00,,FEW060,0.00,VWS V14.01,2013-07-13 00:53:00,
2013-07-12 19:58:00,90.3,69.2,29.91,SE,131,0.0,10.0,50,0.00,,FEW060,0.00,VWS V14.01,2013-07-13 00:58:00,
2013-07-12 20:04:00,90.1,69.0,29.91,ESE,113,5.0,7.0,50,0.00,,CLR,0.00,VWS V14.01,2013-07-13 01:04:00,
2013-07-12 20:09:00,90.1,69.0,29.91,SE,128,0.0,7.0,50,0.00,,CLR,0.00,VWS V14.01,2013-07-13 01:09:00,
2013-07-12 20:14:00,89.9,69.4,29.91,ENE,65,5.0,7.0,51,0.00,,CLR,0.00,VWS V14.01,2013-07-13 01:14:00,
2013-07-12 20:20:00,89.7,70.3,29.91,ESE,110,2.0,7.0,53,0.00,,CLR,0.00,VWS V14.01,2013-07-13 01:20:00,
2013-07-12 20:25:00,89.5,69.6,29.91,East,97,2.0,7.0,52,0.00,,CLR,0.00,VWS V14.01,2013-07-13 01:25:00,
2013-07-12 20:30:00,89.3,68.8,29.91,East,92,2.0,7.0,51,0.00,,CLR,0.00,VWS V14.01,2013-07-13 01:30:00,
2013-07-12 20:37:00,88.8,70.0,29.91,East,92,0.0,7.0,54,0.00,,CLR,0.00,VWS V14.01,2013-07-13 01:37:00,
2013-07-12 20:42:00,88.6,70.4,29.91,ESE,116,2.0,7.0,55,0.00,,CLR,0.00,VWS V14.01,2013-07-13 01:42:00,
2013-07-12 20:47:00,88.2,70.0,29.91,East,96,2.0,7.0,55,0.00,,CLR,0.00,VWS V14.01,2013-07-13 01:47:00,
2013-07-12 20:53:00,88.0,70.3,29.91,ESE,116,0.0,7.0,56,0.00,,CLR,0.00,VWS V14.01,2013-07-13 01:53:00,
2013-07-12 20:58:00,87.6,70.5,29.91,East,99,0.0,7.0,57,0.00,,CLR,0.00,VWS V14.01,2013-07-13 01:58:00,
2013-07-12 21:04:00,87.4,70.3,29.91,ESE,113,0.0,3.0,57,0.00,,CLR,0.00,VWS V14.01,2013-07-13 02:04:00,
2013-07-12 21:09:00,87.2,70.6,29.91,ESE,119,0.0,3.0,58,0.00,,CLR,0.00,VWS V14.01,2013-07-13 02:09:00,
2013-07-12 21:14:00,87.0,70.4,29.91,ESE,110,0.0,5.0,58,0.00,,CLR,0.00,VWS V14.01,2013-07-13 02:14:00,
2013-07-12 21:19:00,86.7,70.2,29.91,ESE,123,0.0,5.0,58,0.00,,CLR,0.00,VWS V14.01,2013-07-13 02:19:00,
2013-07-12 21:24:00,86.5,70.5,29.91,ESE,123,0.0,5.0,59,0.00,,CLR,0.00,VWS V14.01,2013-07-13 02:24:00,
2013-07-12 21:29:00,86.5,70.5,29.91,SE,128,0.0,5.0,59,0.00,,CLR,0.00,VWS V14.01,2013-07-13 02:29:00,
2013-07-12 21:35:00,86.5,70.5,29.91,ESE,120,0.0,5.0,59,0.00,,CLR,0.00,VWS V14.01,2013-07-13 02:35:00,
2013-07-12 21:40:00,86.3,70.8,29.91,ESE,103,2.0,5.0,60,0.00,,CLR,0.00,VWS V14.01,2013-07-13 02:40:00,
2013-07-12 21:45:00,86.3,70.3,29.91,ESE,120,0.0,5.0,59,0.00,,CLR,0.00,VWS V14.01,2013-07-13 02:45:00,
2013-07-12 21:50:00,86.1,70.1,29.91,ESE,110,0.0,5.0,59,0.00,,CLR,0.00,VWS V14.01,2013-07-13 02:50:00,
2013-07-12 21:55:00,86.1,70.1,29.91,ESE,109,1.0,5.0,59,0.00,,CLR,0.00,VWS V14.01,2013-07-13 02:55:00,
2013-07-12 22:00:00,86.1,70.1,29.91,ENE,66,0.0,2.0,59,0.00,,CLR,0.00,VWS V14.01,2013-07-13 03:00:00,
2013-07-12 22:06:00,86.1,70.1,29.91,SE,131,1.0,5.0,59,0.00,,CLR,0.00,VWS V14.01,2013-07-13 03:06:00,
2013-07-12 22:11:00,86.1,70.1,29.91,SE,133,3.0,6.0,59,0.00,,CLR,0.00,VWS V14.01,2013-07-13 03:11:00,
2013-07-12 22:16:00,86.1,70.1,29.92,SE,134,0.0,7.0,59,0.00,,CLR,0.00,VWS V14.01,2013-07-13 03:16:00,
2013-07-12 22:22:00,85.9,70.4,29.92,East,99,3.0,7.0,60,0.00,,CLR,0.00,VWS V14.01,2013-07-13 03:22:00,
2013-07-12 22:27:00,85.9,69.4,29.92,ESE,110,3.0,7.0,58,0.00,,CLR,0.00,VWS V14.01,2013-07-13 03:27:00,
2013-07-12 22:33:00,85.7,70.2,29.92,East,92,2.0,7.0,60,0.00,,CLR,0.00,VWS V14.01,2013-07-13 03:33:00,
2013-07-12 22:38:00,85.5,70.0,29.92,East,99,5.0,7.0,60,0.00,,CLR,0.00,VWS V14.01,2013-07-13 03:38:00,
2013-07-12 22:43:00,85.3,70.3,29.92,East,86,1.0,7.0,61,0.00,,CLR,0.00,VWS V14.01,2013-07-13 03:43:00,
2013-07-12 22:48:00,85.3,70.8,29.93,ESE,102,0.0,7.0,62,0.00,,CLR,0.00,VWS V14.01,2013-07-13 03:48:00,
2013-07-12 22:54:00,84.9,70.0,29.93,East,100,2.0,7.0,61,0.00,,CLR,0.00,VWS V14.01,2013-07-13 03:54:00,
2013-07-12 22:59:00,84.7,70.2,29.93,ESE,119,2.0,7.0,62,0.00,,CLR,0.00,VWS V14.01,2013-07-13 03:59:00,
2013-07-12 23:01:00,84.7,70.2,29.93,East,92,3.0,5.0,62,0.00,,CLR,0.00,VWS V14.01,2013-07-13 04:01:00,
2013-07-12 23:02:00,84.7,70.2,29.93,ESE,116,1.0,5.0,62,0.00,,CLR,0.00,VWS V14.01,2013-07-13 04:02:00,
2013-07-12 23:03:00,84.5,69.6,29.93,ESE,104,3.0,5.0,61,0.00,,CLR,0.00,VWS V14.01,2013-07-13 04:03:00,
2013-07-12 23:06:00,84.5,70.1,29.93,ESE,117,3.0,6.0,62,0.00,,CLR,0.00,VWS V14.01,2013-07-13 04:06:00,
2013-07-12 23:10:00,84.3,69.9,29.93,ESE,103,1.0,6.0,62,0.00,,CLR,0.00,VWS V14.01,2013-07-13 04:10:00,
2013-07-12 23:15:00,84.3,69.9,29.94,East,89,2.0,6.0,62,0.00,,CLR,0.00,VWS V14.01,2013-07-13 04:15:00,
2013-07-12 23:20:00,84.1,70.6,29.94,East,90,0.0,6.0,64,0.00,,CLR,0.00,VWS V14.01,2013-07-13 04:20:00,
2013-07-12 23:25:00,84.0,70.1,29.94,SSE,152,2.0,6.0,63,0.00,,CLR,0.00,VWS V14.01,2013-07-13 04:25:00,
2013-07-12 23:30:00,83.8,69.9,29.94,ESE,107,1.0,6.0,63,0.00,,CLR,0.00,VWS V14.01,2013-07-13 04:30:00,
2013-07-12 23:35:00,83.8,69.4,29.94,East,92,0.0,6.0,62,0.00,,CLR,0.00,VWS V14.01,2013-07-13 04:35:00,
2013-07-12 23:40:00,83.6,69.7,29.94,ESE,102,2.0,6.0,63,0.00,,CLR,0.00,VWS V14.01,2013-07-13 04:40:00,
2013-07-12 23:46:00,83.4,69.9,29.95,East,88,0.0,6.0,64,0.00,,CLR,0.00,VWS V14.01,2013-07-13 04:46:00,
2013-07-12 23:51:00,83.4,69.9,29.95,ESE,103,1.0,7.0,64,0.00,,CLR,0.00,VWS V14.01,2013-07-13 04:51:00,
2013-07-12 23:56:00,83.2,68.8,29.95,East,96,2.0,7.0,62,0.00,,CLR,0.00,VWS V14.01,2013-07-13 04:56:00,